FENGYUN 1C DEB

Satellite information

Favourite Embed

Satellite Type and Status

DEBRISIN ORBIT

Key statistics

Satellite FENGYUN 1C DEB at a glance.

Uptime

9556

Days in orbit

Revolutions

≈ 13.9

Per day

Orbit

SSO

Sun Synchronous Orbit

Inclination

99.1

Latest

Satellite identification and parameters

Extended collection of information and parameters for FENGYUN 1C DEB.

Object identification

Identified? True

Debris? True

Object name: FENGYUN 1C DEB

International designator: 1999-025CQN

Object number (NORAD): 32096

Object ID (CCSDS): 32096

Country: PEOPLES REPUBLIC OF CHINA (PRC)

Current information (Y/N): Y

RCS size: SMALL

Orbital parameters

Period: 103.618 minutes

Inclination: 99.0897 deg

SMA: 7307.737 km

Apoapsis: 1027.158 km

Periapsis: 832.046 km

RAAN: 220.2625 deg

Eccentricy: 0.0133497

Argument of periapsis: 210.8967 deg

Mean anomaly: 148.4287 deg

Mean motion: 13.89723524 rev/day

Mean motion (dot): 0.00000984 rev/day2

B* drag term: 0.00077929 1/REarth

Two-line elements (TLE)

Creation date: July 6, 2025, 2:16 p.m.

Reference frame: TEME

Reference center: EARTH

Epoch: July 6, 2025, 1:06 p.m. UTC

TLE line 0: 0 FENGYUN 1C DEB

TLE line 1: 1 32096U 99025CQN 25187.54593114 .00000984 00000-0 77929-3 0 9998

TLE line 2: 2 32096 99.0897 220.2625 0133497 210.8967 148.4287 13.89723524907041

Live tracking on map

Real-time ground track for satellite FENGYUN 1C DEB.

In-orbit conjunctions

A list of the most updated potential collisions computed for object FENGYUN 1C DEB.

Target Orbit TCA Probability of collision Miss distance Type
SL-16 DEB LEO 2024-11-14 00:43:51 0.0001154136 538.0 (m) DEBRIS
SL-14 DEB LEO 2024-07-13 12:23:24 0.0003877845 47.0 (m) DEBRIS

Associated space launch

Chinese polar orbiting meteorological satellite

FENGYUN 1C DEB was lifted into orbit during the mission ‘Long March 4B | Feng Yun 1C’, on board a Long March 4B space rocket.

The launch took place on May 10, 1999, 1:33 a.m. from Launch Complex 7.

For more information about the launch, click the button.

Launch to space Long March 4B | Feng Yun 1C
Long March 4B | Feng Yun 1C

Agency: N/A

Status: Launch Successful

Launch date: May 10, 1999, 1:33 a.m. UTC

Rocket: Long March 4B

Launch pad: Launch Complex 7

Location: Taiyuan Satellite Launch Center, People's Republic of China

...

Latest news about this satellite

There are no fresh news available about this satellite. Check back as we update our databases every day.


Newsletter sign-up

Weekly statistics, charts and insights to help you stay on top of the space industry.